Time,TemperatureF,DewpointF,PressureIn,WindDirection,WindDirectionDegrees,WindSpeedMPH,WindSpeedGustMPH,Humidity,HourlyPrecipIn,Conditions,Clouds,dailyrainin,SoftwareType,DateUTC
2013-01-20 00:00:00,0.7,-8.6,30.16,NNW,340,7.0,19.0,64,0.00,,,0.00,VWS V14.01,2013-01-20 06:00:00,
2013-01-20 00:05:00,0.7,-8.9,30.16,NNW,347,5.0,17.0,63,0.00,,,0.00,VWS V14.01,2013-01-20 06:05:00,
2013-01-20 00:10:00,0.7,-8.6,30.16,NNW,337,7.0,17.0,64,0.00,,,0.00,VWS V14.01,2013-01-20 06:10:00,
2013-01-20 00:15:00,0.5,-8.5,30.16,North,0,7.0,17.0,65,0.00,,,0.00,VWS V14.01,2013-01-20 06:15:00,
2013-01-20 00:20:00,0.5,-8.8,30.16,NNW,330,8.0,12.0,64,0.00,,,0.00,VWS V14.01,2013-01-20 06:20:00,
2013-01-20 00:25:00,0.5,-8.8,30.16,NNW,328,9.0,24.0,64,0.00,,,0.00,VWS V14.01,2013-01-20 06:25:00,
2013-01-20 00:26:00,0.3,-9.0,30.16,NNW,328,12.0,20.0,64,0.00,,,0.00,VWS V14.01,2013-01-20 06:26:00,
2013-01-20 00:30:00,0.3,-8.7,30.16,NW,312,11.0,20.0,65,0.00,,,0.00,VWS V14.01,2013-01-20 06:30:00,
2013-01-20 00:31:00,0.3,-8.7,30.16,NW,309,8.0,20.0,65,0.00,,,0.00,VWS V14.01,2013-01-20 06:31:00,
2013-01-20 00:35:00,0.1,-8.9,30.16,NNW,330,17.0,21.0,65,0.00,,,0.00,VWS V14.01,2013-01-20 06:35:00,
2013-01-20 00:36:00,0.1,-8.9,30.16,NW,313,7.0,21.0,65,0.00,,,0.00,VWS V14.01,2013-01-20 06:36:00,
2013-01-20 00:40:00,0.1,-8.9,30.16,NW,319,11.0,21.0,65,0.00,,,0.00,VWS V14.01,2013-01-20 06:40:00,
2013-01-20 00:41:00,0.1,-8.9,30.16,NNW,336,14.0,19.0,65,0.00,,,0.00,VWS V14.01,2013-01-20 06:41:00,
2013-01-20 00:45:00,0.1,-9.2,30.16,NNW,346,10.0,24.0,64,0.00,,,0.00,VWS V14.01,2013-01-20 06:45:00,
2013-01-20 00:47:00,0.1,-8.6,30.16,WNW,292,5.0,16.0,66,0.00,,,0.00,VWS V14.01,2013-01-20 06:47:00,
2013-01-20 00:50:00,0.1,-8.3,30.16,NW,323,10.0,31.0,67,0.00,,,0.00,VWS V14.01,2013-01-20 06:50:00,
2013-01-20 00:52:00,0.1,-8.6,30.16,NNW,336,12.0,20.0,66,0.00,,,0.00,VWS V14.01,2013-01-20 06:52:00,
2013-01-20 00:55:00,-0.2,-8.8,30.16,WNW,294,6.0,24.0,66,0.00,,,0.00,VWS V14.01,2013-01-20 06:55:00,
2013-01-20 00:57:00,-0.2,-8.8,30.16,NW,315,12.0,26.0,66,0.00,,,0.00,VWS V14.01,2013-01-20 06:57:00,
2013-01-20 01:00:00,-0.2,-9.1,30.16,NW,323,10.0,26.0,65,0.00,,,0.00,VWS V14.01,2013-01-20 07:00:00,
2013-01-20 01:02:00,-0.2,-8.8,30.16,NW,326,7.0,19.0,66,0.00,,,0.00,VWS V14.01,2013-01-20 07:02:00,
2013-01-20 01:05:00,-0.2,-8.8,30.16,North,353,14.0,19.0,66,0.00,,,0.00,VWS V14.01,2013-01-20 07:05:00,
2013-01-20 01:07:00,-0.4,-9.3,30.16,North,352,7.0,24.0,65,0.00,,,0.00,VWS V14.01,2013-01-20 07:07:00,
2013-01-20 01:10:00,-0.4,-9.3,30.16,NW,322,16.0,24.0,65,0.00,,,0.00,VWS V14.01,2013-01-20 07:10:00,
2013-01-20 01:12:00,-0.4,-9.3,30.16,NNW,337,6.0,21.0,65,0.00,,,0.00,VWS V14.01,2013-01-20 07:12:00,
2013-01-20 01:15:00,-0.4,-9.3,30.17,NW,322,8.0,21.0,65,0.00,,,0.00,VWS V14.01,2013-01-20 07:15:00,
2013-01-20 01:17:00,-0.6,-9.5,30.17,NNW,329,7.0,24.0,65,0.00,,,0.00,VWS V14.01,2013-01-20 07:17:00,
2013-01-20 01:20:00,-0.6,-9.2,30.17,NNW,339,11.0,24.0,66,0.00,,,0.00,VWS V14.01,2013-01-20 07:20:00,
2013-01-20 01:22:00,-0.6,-9.5,30.17,NW,308,4.0,18.0,65,0.00,,,0.00,VWS V14.01,2013-01-20 07:22:00,
2013-01-20 01:25:00,-0.6,-9.5,30.17,NW,311,5.0,20.0,65,0.00,,,0.00,VWS V14.01,2013-01-20 07:25:00,
2013-01-20 01:27:00,-0.6,-9.5,30.17,NNW,332,8.0,20.0,65,0.00,,,0.00,VWS V14.01,2013-01-20 07:27:00,
2013-01-20 01:30:00,-0.8,-9.7,30.19,NW,322,10.0,20.0,65,0.00,,,0.00,VWS V14.01,2013-01-20 07:30:00,
2013-01-20 01:32:00,-0.8,-9.7,30.19,NNW,328,7.0,17.0,65,0.00,,,0.00,VWS V14.01,2013-01-20 07:32:00,
2013-01-20 01:35:00,-0.8,-9.7,30.19,NW,325,6.0,17.0,65,0.00,,,0.00,VWS V14.01,2013-01-20 07:35:00,
2013-01-20 01:37:00,-0.8,-9.7,30.19,NW,318,3.0,14.0,65,0.00,,,0.00,VWS V14.01,2013-01-20 07:37:00,
2013-01-20 01:40:00,-1.0,-9.9,30.19,NW,313,7.0,14.0,65,0.00,,,0.00,VWS V14.01,2013-01-20 07:40:00,
2013-01-20 01:42:00,-1.0,-9.9,30.19,NNW,332,9.0,16.0,65,0.00,,,0.00,VWS V14.01,2013-01-20 07:42:00,
2013-01-20 01:45:00,-1.0,-10.2,30.21,NNW,332,4.0,19.0,64,0.00,,,0.00,VWS V14.01,2013-01-20 07:45:00,
2013-01-20 01:47:00,-1.0,-10.2,30.21,North,359,5.0,12.0,64,0.00,,,0.00,VWS V14.01,2013-01-20 07:47:00,
2013-01-20 01:50:00,-1.0,-10.2,30.21,NNW,330,6.0,14.0,64,0.00,,,0.00,VWS V14.01,2013-01-20 07:50:00,
2013-01-20 01:52:00,-1.2,-10.4,30.21,NW,325,5.0,18.0,64,0.00,,,0.00,VWS V14.01,2013-01-20 07:52:00,
2013-01-20 01:55:00,-1.2,-10.4,30.21,West,272,8.0,18.0,64,0.00,,,0.00,VWS V14.01,2013-01-20 07:55:00,
2013-01-20 01:57:00,-1.2,-10.4,30.21,North,350,5.0,18.0,64,0.00,,,0.00,VWS V14.01,2013-01-20 07:57:00,
2013-01-20 02:00:00,-1.2,-10.4,30.22,NW,325,5.0,18.0,64,0.00,,,0.00,VWS V14.01,2013-01-20 08:00:00,
2013-01-20 02:03:00,-1.2,-10.1,30.22,NW,326,11.0,18.0,65,0.00,,,0.00,VWS V14.01,2013-01-20 08:03:00,
2013-01-20 02:05:00,-1.2,-10.4,30.22,NW,320,6.0,18.0,64,0.00,,,0.00,VWS V14.01,2013-01-20 08:05:00,
2013-01-20 02:08:00,-1.4,-10.3,30.22,WNW,301,4.0,21.0,65,0.00,,,0.00,VWS V14.01,2013-01-20 08:08:00,
2013-01-20 02:10:00,-1.4,-10.3,30.22,NW,315,5.0,21.0,65,0.00,,,0.00,VWS V14.01,2013-01-20 08:10:00,
2013-01-20 02:13:00,-1.4,-10.3,30.22,NW,323,3.0,16.0,65,0.00,,,0.00,VWS V14.01,2013-01-20 08:13:00,
2013-01-20 02:15:00,-1.4,-10.3,30.23,WNW,299,3.0,16.0,65,0.00,,,0.00,VWS V14.01,2013-01-20 08:15:00,
2013-01-20 02:18:00,-1.4,-10.0,30.23,West,275,5.0,6.0,66,0.00,,,0.00,VWS V14.01,2013-01-20 08:18:00,
2013-01-20 02:20:00,-1.6,-10.5,30.23,NNW,335,5.0,6.0,65,0.00,,,0.00,VWS V14.01,2013-01-20 08:20:00,
2013-01-20 02:23:00,-1.6,-10.5,30.23,NNW,333,7.0,18.0,65,0.00,,,0.00,VWS V14.01,2013-01-20 08:23:00,
2013-01-20 02:25:00,-1.6,-10.5,30.23,NW,316,5.0,18.0,65,0.00,,,0.00,VWS V14.01,2013-01-20 08:25:00,
2013-01-20 02:28:00,-1.6,-10.2,30.23,NNW,340,3.0,11.0,66,0.00,,,0.00,VWS V14.01,2013-01-20 08:28:00,
2013-01-20 02:30:00,-1.6,-10.2,30.24,NW,326,5.0,11.0,66,0.00,,,0.00,VWS V14.01,2013-01-20 08:30:00,
2013-01-20 02:33:00,-1.8,-10.7,30.24,West,265,3.0,12.0,65,0.00,,,0.00,VWS V14.01,2013-01-20 08:33:00,
2013-01-20 02:35:00,-1.8,-10.4,30.24,NW,309,5.0,12.0,66,0.00,,,0.00,VWS V14.01,2013-01-20 08:35:00,
2013-01-20 02:38:00,-1.8,-10.4,30.24,WNW,291,5.0,10.0,66,0.00,,,0.00,VWS V14.01,2013-01-20 08:38:00,
2013-01-20 02:40:00,-1.8,-10.7,30.24,NW,326,6.0,10.0,65,0.00,,,0.00,VWS V14.01,2013-01-20 08:40:00,
2013-01-20 02:43:00,-1.8,-10.4,30.24,NW,312,3.0,8.0,66,0.00,,,0.00,VWS V14.01,2013-01-20 08:43:00,
2013-01-20 02:45:00,-1.8,-10.4,30.25,WNW,296,5.0,10.0,66,0.00,,,0.00,VWS V14.01,2013-01-20 08:45:00,
2013-01-20 02:48:00,-2.0,-10.6,30.25,NW,305,3.0,6.0,66,0.00,,,0.00,VWS V14.01,2013-01-20 08:48:00,
2013-01-20 02:50:00,-2.0,-10.6,30.25,NW,323,6.0,6.0,66,0.00,,,0.00,VWS V14.01,2013-01-20 08:50:00,
2013-01-20 02:53:00,-2.0,-10.6,30.25,WNW,285,12.0,13.0,66,0.00,,,0.00,VWS V14.01,2013-01-20 08:53:00,
2013-01-20 02:55:00,-2.0,-10.6,30.25,NW,320,3.0,13.0,66,0.00,,,0.00,VWS V14.01,2013-01-20 08:55:00,
2013-01-20 02:58:00,-2.2,-10.8,30.26,NW,306,3.0,15.0,66,0.00,,,0.00,VWS V14.01,2013-01-20 08:58:00,
2013-01-20 03:00:00,-2.2,-10.4,30.26,WNW,298,2.0,15.0,67,0.00,,,0.00,VWS V14.01,2013-01-20 09:00:00,
2013-01-20 03:03:00,-2.4,-10.6,30.26,WNW,287,3.0,11.0,67,0.00,,,0.00,VWS V14.01,2013-01-20 09:03:00,
2013-01-20 03:05:00,-2.4,-10.6,30.26,WNW,284,2.0,11.0,67,0.00,,,0.00,VWS V14.01,2013-01-20 09:05:00,
2013-01-20 03:08:00,-2.4,-10.6,30.26,NW,320,7.0,17.0,67,0.00,,,0.00,VWS V14.01,2013-01-20 09:08:00,
2013-01-20 03:10:00,-2.4,-10.6,30.26,NNW,329,5.0,17.0,67,0.00,,,0.00,VWS V14.01,2013-01-20 09:10:00,
2013-01-20 03:13:00,-2.4,-10.6,30.26,NW,325,5.0,10.0,67,0.00,,,0.00,VWS V14.01,2013-01-20 09:13:00,
2013-01-20 03:15:00,-2.4,-10.6,30.26,NW,318,3.0,10.0,67,0.00,,,0.00,VWS V14.01,2013-01-20 09:15:00,
2013-01-20 03:18:00,-2.6,-10.8,30.26,NW,320,2.0,16.0,67,0.00,,,0.00,VWS V14.01,2013-01-20 09:18:00,
2013-01-20 03:20:00,-2.6,-10.8,30.26,WNW,291,5.0,16.0,67,0.00,,,0.00,VWS V14.01,2013-01-20 09:20:00,
2013-01-20 03:23:00,-2.6,-10.8,30.26,NNW,332,5.0,17.0,67,0.00,,,0.00,VWS V14.01,2013-01-20 09:23:00,
2013-01-20 03:25:00,-2.6,-10.8,30.26,NNW,339,2.0,17.0,67,0.00,,,0.00,VWS V14.01,2013-01-20 09:25:00,
2013-01-20 03:28:00,-2.6,-10.8,30.26,WNW,302,3.0,7.0,67,0.00,,,0.00,VWS V14.01,2013-01-20 09:28:00,
2013-01-20 03:30:00,-2.6,-10.8,30.26,NNW,332,2.0,9.0,67,0.00,,,0.00,VWS V14.01,2013-01-20 09:30:00,
2013-01-20 03:33:00,-2.8,-11.0,30.26,NW,311,4.0,13.0,67,0.00,,,0.00,VWS V14.01,2013-01-20 09:33:00,
2013-01-20 03:35:00,-2.8,-11.0,30.26,NW,323,4.0,13.0,67,0.00,,,0.00,VWS V14.01,2013-01-20 09:35:00,
2013-01-20 03:38:00,-2.8,-11.0,30.26,West,281,3.0,11.0,67,0.00,,,0.00,VWS V14.01,2013-01-20 09:38:00,
2013-01-20 03:40:00,-2.8,-10.7,30.26,NW,312,3.0,11.0,68,0.00,,,0.00,VWS V14.01,2013-01-20 09:40:00,
2013-01-20 03:43:00,-3.1,-11.0,30.27,NNW,336,3.0,13.0,68,0.00,,,0.00,VWS V14.01,2013-01-20 09:43:00,
2013-01-20 03:45:00,-3.1,-11.0,30.27,WNW,298,3.0,13.0,68,0.00,,,0.00,VWS V14.01,2013-01-20 09:45:00,
2013-01-20 03:49:00,-3.1,-11.0,30.27,NW,318,6.0,11.0,68,0.00,,,0.00,VWS V14.01,2013-01-20 09:49:00,
2013-01-20 03:50:00,-3.1,-11.0,30.27,West,277,3.0,11.0,68,0.00,,,0.00,VWS V14.01,2013-01-20 09:50:00,
2013-01-20 03:54:00,-3.1,-11.0,30.27,WNW,285,2.0,19.0,68,0.00,,,0.00,VWS V14.01,2013-01-20 09:54:00,
2013-01-20 03:55:00,-3.1,-11.0,30.27,WNW,294,3.0,19.0,68,0.00,,,0.00,VWS V14.01,2013-01-20 09:55:00,
2013-01-20 03:59:00,-3.3,-11.2,30.27,West,272,3.0,11.0,68,0.00,,,0.00,VWS V14.01,2013-01-20 09:59:00,
2013-01-20 04:00:00,-3.3,-11.2,30.27,WNW,285,3.0,11.0,68,0.00,,,0.00,VWS V14.01,2013-01-20 10:00:00,
2013-01-20 04:04:00,-3.3,-10.9,30.27,NW,306,3.0,5.0,69,0.00,,,0.00,VWS V14.01,2013-01-20 10:04:00,
2013-01-20 04:05:00,-3.3,-10.9,30.27,WNW,301,3.0,5.0,69,0.00,,,0.00,VWS V14.01,2013-01-20 10:05:00,
2013-01-20 04:09:00,-3.5,-11.1,30.27,WNW,295,3.0,12.0,69,0.00,,,0.00,VWS V14.01,2013-01-20 10:09:00,
2013-01-20 04:10:00,-3.5,-11.1,30.27,WNW,295,3.0,12.0,69,0.00,,,0.00,VWS V14.01,2013-01-20 10:10:00,
2013-01-20 04:14:00,-3.7,-11.3,30.28,NNW,335,3.0,12.0,69,0.00,,,0.00,VWS V14.01,2013-01-20 10:14:00,
2013-01-20 04:15:00,-3.7,-11.3,30.28,NNW,335,3.0,12.0,69,0.00,,,0.00,VWS V14.01,2013-01-20 10:15:00,
2013-01-20 04:19:00,-3.7,-11.6,30.28,WNW,291,3.0,13.0,68,0.00,,,0.00,VWS V14.01,2013-01-20 10:19:00,
2013-01-20 04:20:00,-3.7,-11.6,30.28,WNW,291,3.0,13.0,68,0.00,,,0.00,VWS V14.01,2013-01-20 10:20:00,
2013-01-20 04:24:00,-3.9,-11.5,30.28,WNW,292,17.0,17.0,69,0.00,,,0.00,VWS V14.01,2013-01-20 10:24:00,
2013-01-20 04:25:00,-3.9,-11.5,30.28,WNW,292,17.0,17.0,69,0.00,,,0.00,VWS V14.01,2013-01-20 10:25:00,
2013-01-20 04:29:00,-3.9,-11.5,30.29,West,272,4.0,17.0,69,0.00,,,0.00,VWS V14.01,2013-01-20 10:29:00,
2013-01-20 04:30:00,-3.9,-11.5,30.29,West,272,4.0,17.0,69,0.00,,,0.00,VWS V14.01,2013-01-20 10:30:00,
2013-01-20 04:34:00,-3.9,-11.5,30.29,West,267,3.0,4.0,69,0.00,,,0.00,VWS V14.01,2013-01-20 10:34:00,
2013-01-20 04:35:00,-3.9,-11.5,30.29,West,270,4.0,7.0,69,0.00,,,0.00,VWS V14.01,2013-01-20 10:35:00,
2013-01-20 04:39:00,-3.9,-11.5,30.29,NW,308,13.0,14.0,69,0.00,,,0.00,VWS V14.01,2013-01-20 10:39:00,
2013-01-20 04:40:00,-3.9,-11.5,30.29,WSW,256,5.0,7.0,69,0.00,,,0.00,VWS V14.01,2013-01-20 10:40:00,
2013-01-20 04:44:00,-4.1,-12.0,30.29,WNW,285,5.0,5.0,68,0.00,,,0.00,VWS V14.01,2013-01-20 10:44:00,
2013-01-20 04:45:00,-4.1,-12.0,30.29,WSW,239,5.0,14.0,68,0.00,,,0.00,VWS V14.01,2013-01-20 10:45:00,
2013-01-20 04:49:00,-4.1,-11.7,30.29,West,272,2.0,3.0,69,0.00,,,0.00,VWS V14.01,2013-01-20 10:49:00,
2013-01-20 04:50:00,-4.1,-11.7,30.29,WNW,288,3.0,11.0,69,0.00,,,0.00,VWS V14.01,2013-01-20 10:50:00,
2013-01-20 04:54:00,-4.1,-11.7,30.29,West,261,3.0,3.0,69,0.00,,,0.00,VWS V14.01,2013-01-20 10:54:00,
2013-01-20 04:55:00,-4.1,-11.7,30.29,West,267,3.0,5.0,69,0.00,,,0.00,VWS V14.01,2013-01-20 10:55:00,
2013-01-20 04:59:00,-4.3,-11.9,30.30,WNW,287,3.0,5.0,69,0.00,,,0.00,VWS V14.01,2013-01-20 10:59:00,
2013-01-20 05:04:00,-4.3,-11.9,30.30,WSW,256,3.0,4.0,69,0.00,,,0.00,VWS V14.01,2013-01-20 11:04:00,
2013-01-20 05:05:00,-4.3,-11.9,30.30,West,270,3.0,5.0,69,0.00,,,0.00,VWS V14.01,2013-01-20 11:05:00,
2013-01-20 05:10:00,-4.3,-12.2,30.30,WSW,243,2.0,5.0,68,0.00,,,0.00,VWS V14.01,2013-01-20 11:10:00,
2013-01-20 05:15:00,-4.3,-12.2,30.31,West,278,3.0,3.0,68,0.00,,,0.00,VWS V14.01,2013-01-20 11:15:00,
2013-01-20 05:20:00,-4.3,-11.9,30.31,WSW,237,1.0,3.0,69,0.00,,,0.00,VWS V14.01,2013-01-20 11:20:00,
2013-01-20 05:25:00,-4.3,-11.9,30.31,West,268,3.0,5.0,69,0.00,,,0.00,VWS V14.01,2013-01-20 11:25:00,
2013-01-20 05:30:00,-4.6,-12.2,30.31,WNW,289,3.0,5.0,69,0.00,,,0.00,VWS V14.01,2013-01-20 11:30:00,
2013-01-20 05:35:00,-4.8,-12.6,30.31,NW,318,3.0,4.0,68,0.00,,,0.00,VWS V14.01,2013-01-20 11:35:00,
2013-01-20 05:40:00,-4.8,-12.6,30.31,West,277,2.0,5.0,68,0.00,,,0.00,VWS V14.01,2013-01-20 11:40:00,
2013-01-20 05:45:00,-4.8,-12.4,30.31,West,261,2.0,17.0,69,0.00,,,0.00,VWS V14.01,2013-01-20 11:45:00,
2013-01-20 05:50:00,-4.8,-12.4,30.31,West,265,4.0,5.0,69,0.00,,,0.00,VWS V14.01,2013-01-20 11:50:00,
2013-01-20 05:55:00,-4.8,-12.4,30.31,SW,230,2.0,5.0,69,0.00,,,0.00,VWS V14.01,2013-01-20 11:55:00,
2013-01-20 05:56:00,-4.8,-12.4,30.31,WNW,284,3.0,4.0,69,0.00,,,0.00,VWS V14.01,2013-01-20 11:56:00,
2013-01-20 06:00:00,-4.8,-12.4,30.32,WNW,298,16.0,16.0,69,0.00,,,0.00,VWS V14.01,2013-01-20 12:00:00,
2013-01-20 06:01:00,-4.8,-12.4,30.32,WSW,239,2.0,16.0,69,0.00,,,0.00,VWS V14.01,2013-01-20 12:01:00,
2013-01-20 06:06:00,-5.0,-12.6,30.32,WNW,301,2.0,16.0,69,0.00,,,0.00,VWS V14.01,2013-01-20 12:06:00,
2013-01-20 06:10:00,-5.0,-12.6,30.32,SE,131,2.0,16.0,69,0.00,,,0.00,VWS V14.01,2013-01-20 12:10:00,
2013-01-20 06:11:00,-5.0,-12.6,30.32,NW,305,2.0,16.0,69,0.00,,,0.00,VWS V14.01,2013-01-20 12:11:00,
2013-01-20 06:15:00,-5.2,-12.7,30.32,North,359,6.0,16.0,69,0.00,,,0.00,VWS V14.01,2013-01-20 12:15:00,
2013-01-20 06:16:00,-5.2,-12.7,30.32,WSW,244,3.0,7.0,69,0.00,,,0.00,VWS V14.01,2013-01-20 12:16:00,
2013-01-20 06:20:00,-5.2,-12.7,30.32,NNE,25,2.0,12.0,69,0.00,,,0.00,VWS V14.01,2013-01-20 12:20:00,
2013-01-20 06:21:00,-5.2,-12.7,30.32,WSW,237,3.0,9.0,69,0.00,,,0.00,VWS V14.01,2013-01-20 12:21:00,
2013-01-20 06:25:00,-5.2,-12.7,30.32,NNW,339,4.0,14.0,69,0.00,,,0.00,VWS V14.01,2013-01-20 12:25:00,
2013-01-20 06:26:00,-5.2,-12.7,30.32,East,97,1.0,5.0,69,0.00,,,0.00,VWS V14.01,2013-01-20 12:26:00,
2013-01-20 06:30:00,-5.2,-12.7,30.31,West,267,10.0,14.0,69,0.00,,,0.00,VWS V14.01,2013-01-20 12:30:00,
2013-01-20 06:31:00,-5.2,-12.7,30.31,NW,306,3.0,10.0,69,0.00,,,0.00,VWS V14.01,2013-01-20 12:31:00,
2013-01-20 06:35:00,-5.2,-12.7,30.31,NW,316,3.0,10.0,69,0.00,,,0.00,VWS V14.01,2013-01-20 12:35:00,
2013-01-20 06:37:00,-5.2,-12.7,30.31,NW,320,5.0,6.0,69,0.00,,,0.00,VWS V14.01,2013-01-20 12:37:00,
2013-01-20 06:40:00,-5.4,-12.9,30.31,WNW,288,2.0,7.0,69,0.00,,,0.00,VWS V14.01,2013-01-20 12:40:00,
2013-01-20 06:42:00,-5.4,-12.6,30.31,WSW,258,1.0,15.0,70,0.00,,,0.00,VWS V14.01,2013-01-20 12:42:00,
2013-01-20 06:45:00,-5.2,-12.5,30.32,NNW,329,6.0,15.0,70,0.00,,,0.00,VWS V14.01,2013-01-20 12:45:00,
2013-01-20 06:47:00,-5.4,-12.6,30.32,East,93,2.0,8.0,70,0.00,,,0.00,VWS V14.01,2013-01-20 12:47:00,
2013-01-20 06:50:00,-5.4,-12.6,30.32,West,280,3.0,10.0,70,0.00,,,0.00,VWS V14.01,2013-01-20 12:50:00,
2013-01-20 06:52:00,-5.4,-12.6,30.32,SSW,192,3.0,8.0,70,0.00,,,0.00,VWS V14.01,2013-01-20 12:52:00,
2013-01-20 06:55:00,-5.4,-12.6,30.32,NNW,336,3.0,8.0,70,0.00,,,0.00,VWS V14.01,2013-01-20 12:55:00,
2013-01-20 06:57:00,-5.4,-12.6,30.32,SW,227,2.0,17.0,70,0.00,,,0.00,VWS V14.01,2013-01-20 12:57:00,
2013-01-20 07:00:00,-5.4,-12.6,30.33,SW,222,3.0,17.0,70,0.00,,,0.00,VWS V14.01,2013-01-20 13:00:00,
2013-01-20 07:02:00,-5.4,-12.9,30.33,ENE,73,1.0,6.0,69,0.00,,,0.00,VWS V14.01,2013-01-20 13:02:00,
2013-01-20 07:05:00,-5.4,-12.9,30.33,WSW,251,5.0,6.0,69,0.00,,,0.00,VWS V14.01,2013-01-20 13:05:00,
2013-01-20 07:07:00,-5.4,-12.9,30.33,West,280,7.0,11.0,69,0.00,,,0.00,VWS V14.01,2013-01-20 13:07:00,
2013-01-20 07:12:00,-5.4,-12.9,30.33,SSW,213,1.0,6.0,69,0.00,,,0.00,VWS V14.01,2013-01-20 13:12:00,
2013-01-20 07:15:00,-5.4,-12.9,30.33,WNW,298,0.0,8.0,69,0.00,,,0.00,VWS V14.01,2013-01-20 13:15:00,
2013-01-20 07:18:00,-5.4,-12.9,30.33,West,281,2.0,6.0,69,0.00,,,0.00,VWS V14.01,2013-01-20 13:18:00,
2013-01-20 07:20:00,-5.4,-12.9,30.33,WSW,258,2.0,6.0,69,0.00,,,0.00,VWS V14.01,2013-01-20 13:20:00,
2013-01-20 07:23:00,-5.4,-12.9,30.33,West,270,3.0,6.0,69,0.00,,,0.00,VWS V14.01,2013-01-20 13:23:00,
2013-01-20 07:25:00,-5.4,-12.9,30.33,West,261,3.0,6.0,69,0.00,,,0.00,VWS V14.01,2013-01-20 13:25:00,
2013-01-20 07:28:00,-5.6,-13.1,30.34,WSW,248,3.0,7.0,69,0.00,,,0.00,VWS V14.01,2013-01-20 13:28:00,
2013-01-20 07:30:00,-5.6,-13.1,30.34,West,278,3.0,7.0,69,0.00,,,0.00,VWS V14.01,2013-01-20 13:30:00,
2013-01-20 07:33:00,-5.6,-13.4,30.34,SW,217,3.0,5.0,68,0.00,,,0.00,VWS V14.01,2013-01-20 13:33:00,
2013-01-20 07:35:00,-5.6,-13.4,30.34,WNW,282,4.0,5.0,68,0.00,,,0.00,VWS V14.01,2013-01-20 13:35:00,
2013-01-20 07:38:00,-5.9,-13.7,30.34,SW,236,2.0,4.0,68,0.00,,,0.00,VWS V14.01,2013-01-20 13:38:00,
2013-01-20 07:40:00,-5.9,-13.7,30.34,West,261,2.0,4.0,68,0.00,,,0.00,VWS V14.01,2013-01-20 13:40:00,
2013-01-20 07:44:00,-5.9,-13.7,30.34,West,280,3.0,5.0,68,0.00,,,0.00,VWS V14.01,2013-01-20 13:44:00,
2013-01-20 07:45:00,-5.9,-13.7,30.34,West,280,3.0,5.0,68,0.00,,,0.00,VWS V14.01,2013-01-20 13:45:00,
2013-01-20 07:49:00,-6.3,-14.1,30.34,West,281,3.0,10.0,68,0.00,,,0.00,VWS V14.01,2013-01-20 13:49:00,
2013-01-20 07:50:00,-6.3,-14.1,30.34,West,281,3.0,10.0,68,0.00,,,0.00,VWS V14.01,2013-01-20 13:50:00,
2013-01-20 07:54:00,-6.3,-14.1,30.34,WNW,295,5.0,16.0,68,0.00,,,0.00,VWS V14.01,2013-01-20 13:54:00,
2013-01-20 07:55:00,-6.3,-14.1,30.34,WNW,295,5.0,16.0,68,0.00,,,0.00,VWS V14.01,2013-01-20 13:55:00,
2013-01-20 07:59:00,-6.5,-14.3,30.34,NW,306,6.0,6.0,68,0.00,,,0.00,VWS V14.01,2013-01-20 13:59:00,
2013-01-20 08:00:00,-6.5,-14.3,30.34,West,278,6.0,9.0,68,0.00,,,0.00,VWS V14.01,2013-01-20 14:00:00,
2013-01-20 08:04:00,-6.5,-14.3,30.34,WNW,291,8.0,8.0,68,0.00,,,0.00,VWS V14.01,2013-01-20 14:04:00,
2013-01-20 08:05:00,-6.5,-14.3,30.34,West,281,1.0,12.0,68,0.00,,,0.00,VWS V14.01,2013-01-20 14:05:00,
2013-01-20 08:09:00,-6.8,-14.6,30.34,WNW,298,3.0,3.0,68,0.00,,,0.00,VWS V14.01,2013-01-20 14:09:00,
2013-01-20 08:10:00,-6.8,-14.6,30.34,WNW,302,3.0,12.0,68,0.00,,,0.00,VWS V14.01,2013-01-20 14:10:00,
2013-01-20 08:14:00,-6.8,-14.9,30.34,WNW,284,3.0,10.0,67,0.00,,,0.00,VWS V14.01,2013-01-20 14:14:00,
2013-01-20 08:15:00,-6.8,-14.9,30.34,NW,320,7.0,7.0,67,0.00,,,0.00,VWS V14.01,2013-01-20 14:15:00,
2013-01-20 08:19:00,-6.8,-14.9,30.34,WNW,292,2.0,7.0,67,0.00,,,0.00,VWS V14.01,2013-01-20 14:19:00,
2013-01-20 08:20:00,-6.8,-14.9,30.34,NW,315,7.0,10.0,67,0.00,,,0.00,VWS V14.01,2013-01-20 14:20:00,
2013-01-20 08:24:00,-6.8,-14.9,30.34,WNW,301,7.0,7.0,67,0.00,,,0.00,VWS V14.01,2013-01-20 14:24:00,
2013-01-20 08:25:00,-6.5,-14.6,30.34,WNW,301,7.0,11.0,67,0.00,,,0.00,VWS V14.01,2013-01-20 14:25:00,
2013-01-20 08:29:00,-6.8,-15.2,30.34,NW,318,2.0,10.0,66,0.00,,,0.00,VWS V14.01,2013-01-20 14:29:00,
2013-01-20 08:30:00,-6.8,-15.2,30.34,NW,315,5.0,14.0,66,0.00,,,0.00,VWS V14.01,2013-01-20 14:30:00,
2013-01-20 08:35:00,-6.8,-15.2,30.34,NNW,333,10.0,10.0,66,0.00,,,0.00,VWS V14.01,2013-01-20 14:35:00,
2013-01-20 08:40:00,-6.8,-15.2,30.34,WNW,284,2.0,4.0,66,0.00,,,0.00,VWS V14.01,2013-01-20 14:40:00,
2013-01-20 08:45:00,-6.8,-15.2,30.34,West,265,1.0,3.0,66,0.00,,,0.00,VWS V14.01,2013-01-20 14:45:00,
2013-01-20 08:50:00,-6.5,-14.9,30.34,WNW,294,2.0,3.0,66,0.00,,,0.00,VWS V14.01,2013-01-20 14:50:00,
2013-01-20 08:55:00,-6.5,-14.9,30.34,NW,322,6.0,11.0,66,0.00,,,0.00,VWS V14.01,2013-01-20 14:55:00,
2013-01-20 09:00:00,-6.5,-15.2,30.35,WNW,282,3.0,7.0,65,0.00,,,0.00,VWS V14.01,2013-01-20 15:00:00,
2013-01-20 09:05:00,-6.3,-15.0,30.35,West,277,3.0,3.0,65,0.00,,,0.00,VWS V14.01,2013-01-20 15:05:00,
2013-01-20 09:10:00,-6.3,-15.0,30.35,WNW,301,6.0,10.0,65,0.00,,,0.00,VWS V14.01,2013-01-20 15:10:00,
2013-01-20 09:15:00,-6.1,-14.8,30.36,West,263,3.0,3.0,65,0.00,,,0.00,VWS V14.01,2013-01-20 15:15:00,
2013-01-20 09:20:00,-6.1,-15.1,30.36,West,264,5.0,5.0,64,0.00,,,0.00,VWS V14.01,2013-01-20 15:20:00,
2013-01-20 09:25:00,-5.9,-14.9,30.36,WNW,291,3.0,3.0,64,0.00,,,0.00,VWS V14.01,2013-01-20 15:25:00,
2013-01-20 09:30:00,-5.9,-14.9,30.37,WNW,285,3.0,12.0,64,0.00,,,0.00,VWS V14.01,2013-01-20 15:30:00,
2013-01-20 09:35:00,-5.9,-15.2,30.37,West,278,3.0,3.0,63,0.00,,,0.00,VWS V14.01,2013-01-20 15:35:00,
2013-01-20 09:40:00,-5.6,-14.9,30.37,West,261,6.0,10.0,63,0.00,,,0.00,VWS V14.01,2013-01-20 15:40:00,
2013-01-20 09:45:00,-5.6,-14.9,30.37,West,272,3.0,12.0,63,0.00,,,0.00,VWS V14.01,2013-01-20 15:45:00,
2013-01-20 09:46:00,-5.6,-14.9,30.37,WNW,296,2.0,4.0,63,0.00,,,0.00,VWS V14.01,2013-01-20 15:46:00,
2013-01-20 09:50:00,-5.4,-14.7,30.37,West,268,3.0,5.0,63,0.00,,,0.00,VWS V14.01,2013-01-20 15:50:00,
2013-01-20 09:51:00,-5.4,-14.7,30.37,WNW,287,2.0,5.0,63,0.00,,,0.00,VWS V14.01,2013-01-20 15:51:00,
2013-01-20 09:55:00,-5.0,-14.4,30.37,West,267,4.0,5.0,63,0.00,,,0.00,VWS V14.01,2013-01-20 15:55:00,
2013-01-20 09:56:00,-5.0,-14.4,30.37,SSW,209,4.0,4.0,63,0.00,,,0.00,VWS V14.01,2013-01-20 15:56:00,
2013-01-20 10:00:00,-4.8,-14.5,30.38,WNW,284,2.0,4.0,62,0.00,,,0.00,VWS V14.01,2013-01-20 16:00:00,
2013-01-20 10:01:00,-4.8,-14.5,30.38,WSW,247,3.0,5.0,62,0.00,,,0.00,VWS V14.01,2013-01-20 16:01:00,
2013-01-20 10:05:00,-4.8,-14.5,30.38,West,264,5.0,9.0,62,0.00,,,0.00,VWS V14.01,2013-01-20 16:05:00,
2013-01-20 10:06:00,-4.8,-14.8,30.38,West,264,2.0,8.0,61,0.00,,,0.00,VWS V14.01,2013-01-20 16:06:00,
2013-01-20 10:10:00,-4.6,-14.3,30.38,WSW,237,3.0,8.0,62,0.00,,,0.00,VWS V14.01,2013-01-20 16:10:00,
2013-01-20 10:11:00,-4.6,-14.6,30.38,West,267,3.0,5.0,61,0.00,,,0.00,VWS V14.01,2013-01-20 16:11:00,
2013-01-20 10:15:00,-4.8,-14.8,30.38,WSW,258,2.0,5.0,61,0.00,,,0.00,VWS V14.01,2013-01-20 16:15:00,
2013-01-20 10:16:00,-4.8,-14.8,30.38,West,268,3.0,5.0,61,0.00,,,0.00,VWS V14.01,2013-01-20 16:16:00,
2013-01-20 10:20:00,-4.8,-14.8,30.38,West,261,3.0,10.0,61,0.00,,,0.00,VWS V14.01,2013-01-20 16:20:00,
2013-01-20 10:21:00,-4.6,-14.6,30.38,West,281,2.0,5.0,61,0.00,,,0.00,VWS V14.01,2013-01-20 16:21:00,
2013-01-20 10:25:00,-4.6,-14.6,30.38,West,280,2.0,10.0,61,0.00,,,0.00,VWS V14.01,2013-01-20 16:25:00,
2013-01-20 10:26:00,-4.3,-14.0,30.38,West,267,5.0,5.0,62,0.00,,,0.00,VWS V14.01,2013-01-20 16:26:00,
2013-01-20 10:30:00,-4.3,-14.3,30.38,WSW,258,3.0,5.0,61,0.00,,,0.00,VWS V14.01,2013-01-20 16:30:00,
2013-01-20 10:31:00,-4.3,-14.3,30.38,SW,223,4.0,4.0,61,0.00,,,0.00,VWS V14.01,2013-01-20 16:31:00,
2013-01-20 10:35:00,-4.3,-14.0,30.38,WSW,244,3.0,5.0,62,0.00,,,0.00,VWS V14.01,2013-01-20 16:35:00,
2013-01-20 10:36:00,-4.3,-14.0,30.38,WSW,241,5.0,5.0,62,0.00,,,0.00,VWS V14.01,2013-01-20 16:36:00,
2013-01-20 10:40:00,-4.6,-14.3,30.38,SW,227,5.0,5.0,62,0.00,,,0.00,VWS V14.01,2013-01-20 16:40:00,
2013-01-20 10:41:00,-4.3,-14.0,30.38,WSW,246,3.0,5.0,62,0.00,,,0.00,VWS V14.01,2013-01-20 16:41:00,
2013-01-20 10:45:00,-4.3,-13.7,30.38,WSW,244,3.0,6.0,63,0.00,,,0.00,VWS V14.01,2013-01-20 16:45:00,
2013-01-20 10:46:00,-4.3,-14.0,30.38,SW,217,4.0,6.0,62,0.00,,,0.00,VWS V14.01,2013-01-20 16:46:00,
2013-01-20 10:50:00,-4.1,-13.5,30.38,SW,224,3.0,6.0,63,0.00,,,0.00,VWS V14.01,2013-01-20 16:50:00,
2013-01-20 10:51:00,-3.9,-13.3,30.38,West,261,3.0,5.0,63,0.00,,,0.00,VWS V14.01,2013-01-20 16:51:00,
2013-01-20 10:55:00,-3.9,-13.3,30.38,WSW,241,4.0,5.0,63,0.00,,,0.00,VWS V14.01,2013-01-20 16:55:00,
2013-01-20 10:56:00,-3.9,-13.3,30.38,SW,232,2.0,5.0,63,0.00,,,0.00,VWS V14.01,2013-01-20 16:56:00,
2013-01-20 11:00:00,-3.9,-13.3,30.38,WSW,251,3.0,5.0,63,0.00,,,0.00,VWS V14.01,2013-01-20 17:00:00,
2013-01-20 11:01:00,-3.7,-13.1,30.38,WSW,239,3.0,5.0,63,0.00,,,0.00,VWS V14.01,2013-01-20 17:01:00,
2013-01-20 11:05:00,-3.7,-13.4,30.38,WSW,241,3.0,8.0,62,0.00,,,0.00,VWS V14.01,2013-01-20 17:05:00,
2013-01-20 11:06:00,-3.7,-13.4,30.38,WSW,253,4.0,5.0,62,0.00,,,0.00,VWS V14.01,2013-01-20 17:06:00,
2013-01-20 11:10:00,-3.7,-13.4,30.38,SW,233,3.0,5.0,62,0.00,,,0.00,VWS V14.01,2013-01-20 17:10:00,
2013-01-20 11:11:00,-3.5,-13.2,30.38,SW,236,3.0,4.0,62,0.00,,,0.00,VWS V14.01,2013-01-20 17:11:00,
2013-01-20 11:15:00,-3.3,-13.1,30.37,West,275,3.0,8.0,62,0.00,,,0.00,VWS V14.01,2013-01-20 17:15:00,
2013-01-20 11:16:00,-3.3,-13.1,30.37,WSW,258,5.0,5.0,62,0.00,,,0.00,VWS V14.01,2013-01-20 17:16:00,
2013-01-20 11:20:00,-3.1,-12.9,30.37,West,274,4.0,7.0,62,0.00,,,0.00,VWS V14.01,2013-01-20 17:20:00,
2013-01-20 11:21:00,-3.3,-13.4,30.37,West,267,3.0,5.0,61,0.00,,,0.00,VWS V14.01,2013-01-20 17:21:00,
2013-01-20 11:25:00,-3.1,-13.2,30.37,WSW,257,4.0,5.0,61,0.00,,,0.00,VWS V14.01,2013-01-20 17:25:00,
2013-01-20 11:26:00,-3.1,-13.2,30.37,WSW,246,4.0,5.0,61,0.00,,,0.00,VWS V14.01,2013-01-20 17:26:00,
2013-01-20 11:30:00,-3.1,-13.2,30.36,West,265,3.0,5.0,61,0.00,,,0.00,VWS V14.01,2013-01-20 17:30:00,
2013-01-20 11:32:00,-2.8,-12.9,30.36,WNW,282,3.0,5.0,61,0.00,,,0.00,VWS V14.01,2013-01-20 17:32:00,
2013-01-20 11:35:00,-2.8,-13.2,30.36,WSW,254,4.0,5.0,60,0.00,,,0.00,VWS V14.01,2013-01-20 17:35:00,
2013-01-20 11:37:00,-2.6,-12.7,30.36,WSW,256,3.0,5.0,61,0.00,,,0.00,VWS V14.01,2013-01-20 17:37:00,
2013-01-20 11:40:00,-2.4,-12.2,30.36,West,280,3.0,11.0,62,0.00,,,0.00,VWS V14.01,2013-01-20 17:40:00,
2013-01-20 11:42:00,-2.6,-13.0,30.36,West,260,3.0,5.0,60,0.00,,,0.00,VWS V14.01,2013-01-20 17:42:00,
2013-01-20 11:45:00,-2.4,-12.9,30.36,WSW,241,3.0,5.0,60,0.00,,,0.00,VWS V14.01,2013-01-20 17:45:00,
2013-01-20 11:47:00,-2.2,-12.3,30.36,West,278,3.0,5.0,61,0.00,,,0.00,VWS V14.01,2013-01-20 17:47:00,
2013-01-20 11:50:00,-1.8,-11.9,30.36,SW,233,3.0,6.0,61,0.00,,,0.00,VWS V14.01,2013-01-20 17:50:00,
2013-01-20 11:52:00,-2.0,-12.1,30.36,WSW,237,3.0,6.0,61,0.00,,,0.00,VWS V14.01,2013-01-20 17:52:00,
2013-01-20 11:55:00,-2.0,-12.5,30.36,WSW,243,4.0,6.0,60,0.00,,,0.00,VWS V14.01,2013-01-20 17:55:00,
2013-01-20 11:57:00,-2.2,-12.7,30.36,SW,234,3.0,6.0,60,0.00,,,0.00,VWS V14.01,2013-01-20 17:57:00,
2013-01-20 12:00:00,-2.2,-12.7,30.35,West,263,2.0,6.0,60,0.00,,,0.00,VWS V14.01,2013-01-20 18:00:00,
2013-01-20 12:02:00,-2.0,-12.1,30.35,WSW,247,5.0,5.0,61,0.00,,,0.00,VWS V14.01,2013-01-20 18:02:00,
2013-01-20 12:05:00,-2.0,-12.1,30.35,WSW,250,5.0,5.0,61,0.00,,,0.00,VWS V14.01,2013-01-20 18:05:00,
2013-01-20 12:07:00,-2.2,-12.3,30.35,WSW,253,4.0,7.0,61,0.00,,,0.00,VWS V14.01,2013-01-20 18:07:00,
2013-01-20 12:10:00,-2.2,-12.3,30.35,West,264,4.0,7.0,61,0.00,,,0.00,VWS V14.01,2013-01-20 18:10:00,
2013-01-20 12:12:00,-2.2,-12.3,30.35,West,264,5.0,6.0,61,0.00,,,0.00,VWS V14.01,2013-01-20 18:12:00,
2013-01-20 12:15:00,-2.2,-12.0,30.34,WSW,257,4.0,13.0,62,0.00,,,0.00,VWS V14.01,2013-01-20 18:15:00,
2013-01-20 12:17:00,-2.0,-11.8,30.34,WSW,257,3.0,5.0,62,0.00,,,0.00,VWS V14.01,2013-01-20 18:17:00,
2013-01-20 12:20:00,-2.0,-11.5,30.34,WSW,243,4.0,5.0,63,0.00,,,0.00,VWS V14.01,2013-01-20 18:20:00,
2013-01-20 12:22:00,-1.8,-11.3,30.34,WSW,246,3.0,12.0,63,0.00,,,0.00,VWS V14.01,2013-01-20 18:22:00,
2013-01-20 12:27:00,-1.6,-11.4,30.34,WSW,258,4.0,6.0,62,0.00,,,0.00,VWS V14.01,2013-01-20 18:27:00,
2013-01-20 12:30:00,-1.6,-11.4,30.34,West,263,3.0,6.0,62,0.00,,,0.00,VWS V14.01,2013-01-20 18:30:00,
2013-01-20 12:32:00,-1.2,-11.1,30.34,West,274,3.0,11.0,62,0.00,,,0.00,VWS V14.01,2013-01-20 18:32:00,
2013-01-20 12:35:00,-1.2,-11.1,30.34,West,265,5.0,11.0,62,0.00,,,0.00,VWS V14.01,2013-01-20 18:35:00,
2013-01-20 12:37:00,-1.4,-11.6,30.34,West,272,4.0,6.0,61,0.00,,,0.00,VWS V14.01,2013-01-20 18:37:00,
2013-01-20 12:40:00,-1.2,-11.1,30.34,WNW,287,5.0,6.0,62,0.00,,,0.00,VWS V14.01,2013-01-20 18:40:00,
2013-01-20 12:42:00,-0.8,-11.0,30.34,West,265,4.0,12.0,61,0.00,,,0.00,VWS V14.01,2013-01-20 18:42:00,
2013-01-20 12:45:00,-0.8,-11.0,30.33,WNW,289,4.0,12.0,61,0.00,,,0.00,VWS V14.01,2013-01-20 18:45:00,
2013-01-20 12:47:00,-0.6,-10.8,30.33,West,277,5.0,10.0,61,0.00,,,0.00,VWS V14.01,2013-01-20 18:47:00,
2013-01-20 12:50:00,-0.6,-10.8,30.33,West,275,5.0,12.0,61,0.00,,,0.00,VWS V14.01,2013-01-20 18:50:00,
2013-01-20 12:52:00,-0.4,-10.3,30.33,West,265,4.0,6.0,62,0.00,,,0.00,VWS V14.01,2013-01-20 18:52:00,
2013-01-20 12:55:00,-0.2,-10.1,30.33,WSW,250,3.0,6.0,62,0.00,,,0.00,VWS V14.01,2013-01-20 18:55:00,
2013-01-20 12:57:00,0.1,-10.2,30.33,WSW,257,4.0,11.0,61,0.00,,,0.00,VWS V14.01,2013-01-20 18:57:00,
2013-01-20 13:00:00,-0.2,-10.4,30.33,WSW,254,4.0,11.0,61,0.00,,,0.00,VWS V14.01,2013-01-20 19:00:00,
2013-01-20 13:02:00,0.1,-9.8,30.33,West,281,9.0,11.0,62,0.00,,,0.00,VWS V14.01,2013-01-20 19:02:00,
2013-01-20 13:05:00,0.1,-9.8,30.33,WSW,240,5.0,11.0,62,0.00,,,0.00,VWS V14.01,2013-01-20 19:05:00,
2013-01-20 13:07:00,0.1,-9.9,30.33,WSW,246,6.0,6.0,62,0.00,,,0.00,VWS V14.01,2013-01-20 19:07:00,
2013-01-20 13:10:00,-0.2,-10.1,30.33,SW,224,5.0,6.0,62,0.00,,,0.00,VWS V14.01,2013-01-20 19:10:00,
2013-01-20 13:12:00,-0.4,-10.3,30.33,WSW,248,5.0,6.0,62,0.00,,,0.00,VWS V14.01,2013-01-20 19:12:00,
2013-01-20 13:15:00,-0.2,-10.1,30.32,WSW,257,4.0,6.0,62,0.00,,,0.00,VWS V14.01,2013-01-20 19:15:00,
2013-01-20 13:17:00,-0.2,-10.1,30.32,West,281,4.0,5.0,62,0.00,,,0.00,VWS V14.01,2013-01-20 19:17:00,
2013-01-20 13:20:00,-0.2,-9.9,30.32,West,263,7.0,7.0,62,0.00,,,0.00,VWS V14.01,2013-01-20 19:20:00,
2013-01-20 13:23:00,0.5,-9.4,30.32,SW,224,8.0,9.0,62,0.00,,,0.00,VWS V14.01,2013-01-20 19:23:00,
2013-01-20 13:25:00,0.7,-9.2,30.32,WSW,254,5.0,9.0,62,0.00,,,0.00,VWS V14.01,2013-01-20 19:25:00,
2013-01-20 13:28:00,0.5,-10.1,30.32,WSW,244,6.0,7.0,60,0.00,,,0.00,VWS V14.01,2013-01-20 19:28:00,
2013-01-20 13:30:00,0.5,-10.1,30.32,WSW,246,6.0,7.0,60,0.00,,,0.00,VWS V14.01,2013-01-20 19:30:00,
2013-01-20 13:33:00,0.7,-9.9,30.32,SW,215,6.0,6.0,60,0.00,,,0.00,VWS V14.01,2013-01-20 19:33:00,
2013-01-20 13:35:00,0.7,-9.9,30.32,WSW,257,10.0,12.0,60,0.00,,,0.00,VWS V14.01,2013-01-20 19:35:00,
2013-01-20 13:38:00,0.9,-9.7,30.32,SSW,203,6.0,10.0,60,0.00,,,0.00,VWS V14.01,2013-01-20 19:38:00,
2013-01-20 13:40:00,0.9,-9.7,30.32,WSW,248,5.0,10.0,60,0.00,,,0.00,VWS V14.01,2013-01-20 19:40:00,
2013-01-20 13:43:00,0.9,-10.1,30.32,West,264,5.0,11.0,59,0.00,,,0.00,VWS V14.01,2013-01-20 19:43:00,
2013-01-20 13:45:00,0.9,-10.4,30.31,West,264,5.0,11.0,58,0.00,,,0.00,VWS V14.01,2013-01-20 19:45:00,
2013-01-20 13:48:00,0.9,-10.1,30.31,West,270,5.0,10.0,59,0.00,,,0.00,VWS V14.01,2013-01-20 19:48:00,
2013-01-20 13:53:00,1.5,-9.1,30.31,WSW,250,5.0,10.0,60,0.00,,,0.00,VWS V14.01,2013-01-20 19:53:00,
2013-01-20 13:55:00,1.7,-9.0,30.31,West,267,4.0,10.0,60,0.00,,,0.00,VWS V14.01,2013-01-20 19:55:00,
2013-01-20 13:58:00,2.0,-9.4,30.31,West,272,11.0,11.0,58,0.00,,,0.00,VWS V14.01,2013-01-20 19:58:00,
2013-01-20 14:00:00,1.8,-9.6,30.30,West,280,8.0,11.0,58,0.00,,,0.00,VWS V14.01,2013-01-20 20:00:00,
2013-01-20 14:03:00,1.8,-9.6,30.30,West,278,5.0,13.0,58,0.00,,,0.00,VWS V14.01,2013-01-20 20:03:00,
2013-01-20 14:05:00,1.7,-10.0,30.30,West,265,5.0,13.0,57,0.00,,,0.00,VWS V14.01,2013-01-20 20:05:00,
2013-01-20 14:08:00,1.7,-9.6,30.30,WSW,258,6.0,12.0,58,0.00,,,0.00,VWS V14.01,2013-01-20 20:08:00,
2013-01-20 14:10:00,1.7,-9.6,30.30,WSW,256,6.0,12.0,58,0.00,,,0.00,VWS V14.01,2013-01-20 20:10:00,
2013-01-20 14:13:00,1.8,-9.9,30.30,West,278,11.0,13.0,57,0.00,,,0.00,VWS V14.01,2013-01-20 20:13:00,
2013-01-20 14:15:00,2.0,-9.4,30.30,West,280,8.0,13.0,58,0.00,,,0.00,VWS V14.01,2013-01-20 20:15:00,
2013-01-20 14:18:00,2.0,-10.1,30.30,West,278,5.0,13.0,56,0.00,,,0.00,VWS V14.01,2013-01-20 20:18:00,
2013-01-20 14:20:00,1.8,-10.3,30.30,NW,308,8.0,13.0,56,0.00,,,0.00,VWS V14.01,2013-01-20 20:20:00,
2013-01-20 14:23:00,2.2,-9.5,30.30,West,271,11.0,11.0,57,0.00,,,0.00,VWS V14.01,2013-01-20 20:23:00,
2013-01-20 14:25:00,2.2,-9.5,30.30,WNW,282,6.0,11.0,57,0.00,,,0.00,VWS V14.01,2013-01-20 20:25:00,
2013-01-20 14:28:00,2.0,-10.1,30.30,WSW,241,5.0,13.0,56,0.00,,,0.00,VWS V14.01,2013-01-20 20:28:00,
2013-01-20 14:30:00,2.0,-10.1,30.30,West,281,5.0,13.0,56,0.00,,,0.00,VWS V14.01,2013-01-20 20:30:00,
2013-01-20 14:33:00,2.0,-10.1,30.30,West,280,5.0,16.0,56,0.00,,,0.00,VWS V14.01,2013-01-20 20:33:00,
2013-01-20 14:35:00,2.2,-9.9,30.30,WNW,284,8.0,16.0,56,0.00,,,0.00,VWS V14.01,2013-01-20 20:35:00,
2013-01-20 14:38:00,2.0,-10.4,30.30,West,277,6.0,18.0,55,0.00,,,0.00,VWS V14.01,2013-01-20 20:38:00,
2013-01-20 14:40:00,1.8,-10.6,30.30,WNW,285,5.0,18.0,55,0.00,,,0.00,VWS V14.01,2013-01-20 20:40:00,
2013-01-20 14:43:00,1.7,-10.4,30.30,WNW,295,5.0,16.0,56,0.00,,,0.00,VWS V14.01,2013-01-20 20:43:00,
2013-01-20 14:45:00,1.7,-10.4,30.30,WNW,298,5.0,16.0,56,0.00,,,0.00,VWS V14.01,2013-01-20 20:45:00,
2013-01-20 14:48:00,2.0,-10.1,30.30,WNW,296,5.0,16.0,56,0.00,,,0.00,VWS V14.01,2013-01-20 20:48:00,
2013-01-20 14:50:00,2.2,-9.9,30.30,West,265,6.0,16.0,56,0.00,,,0.00,VWS V14.01,2013-01-20 20:50:00,
2013-01-20 14:53:00,1.7,-11.1,30.30,West,270,5.0,16.0,54,0.00,,,0.00,VWS V14.01,2013-01-20 20:53:00,
2013-01-20 14:55:00,1.7,-11.1,30.30,West,277,5.0,16.0,54,0.00,,,0.00,VWS V14.01,2013-01-20 20:55:00,
2013-01-20 14:59:00,1.3,-11.5,30.29,WNW,287,7.0,17.0,54,0.00,,,0.00,VWS V14.01,2013-01-20 20:59:00,
2013-01-20 15:00:00,1.3,-11.5,30.29,WNW,282,8.0,17.0,54,0.00,,,0.00,VWS V14.01,2013-01-20 21:00:00,
2013-01-20 15:04:00,1.5,-11.3,30.29,West,261,5.0,16.0,54,0.00,,,0.00,VWS V14.01,2013-01-20 21:04:00,
2013-01-20 15:05:00,1.5,-11.3,30.29,West,261,5.0,16.0,54,0.00,,,0.00,VWS V14.01,2013-01-20 21:05:00,
2013-01-20 15:09:00,1.5,-11.3,30.29,West,267,7.0,16.0,54,0.00,,,0.00,VWS V14.01,2013-01-20 21:09:00,
2013-01-20 15:10:00,1.5,-11.3,30.29,West,267,7.0,16.0,54,0.00,,,0.00,VWS V14.01,2013-01-20 21:10:00,
2013-01-20 15:14:00,1.5,-10.9,30.29,West,270,5.0,16.0,55,0.00,,,0.00,VWS V14.01,2013-01-20 21:14:00,
2013-01-20 15:15:00,1.5,-10.9,30.29,West,270,5.0,16.0,55,0.00,,,0.00,VWS V14.01,2013-01-20 21:15:00,
2013-01-20 15:19:00,1.7,-11.1,30.29,WSW,246,3.0,4.0,54,0.00,,,0.00,VWS V14.01,2013-01-20 21:19:00,
2013-01-20 15:20:00,1.7,-11.1,30.29,WSW,248,3.0,15.0,54,0.00,,,0.00,VWS V14.01,2013-01-20 21:20:00,
2013-01-20 15:24:00,1.7,-11.1,30.29,WNW,295,6.0,7.0,54,0.00,,,0.00,VWS V14.01,2013-01-20 21:24:00,
2013-01-20 15:25:00,1.7,-11.1,30.29,West,268,6.0,15.0,54,0.00,,,0.00,VWS V14.01,2013-01-20 21:25:00,
2013-01-20 15:30:00,1.7,-10.7,30.28,West,271,12.0,12.0,55,0.00,,,0.00,VWS V14.01,2013-01-20 21:30:00,
2013-01-20 15:35:00,1.8,-10.6,30.28,West,275,12.0,12.0,55,0.00,,,0.00,VWS V14.01,2013-01-20 21:35:00,
2013-01-20 15:40:00,1.8,-10.6,30.28,WSW,250,7.0,11.0,55,0.00,,,0.00,VWS V14.01,2013-01-20 21:40:00,
2013-01-20 15:45:00,1.8,-10.6,30.28,West,264,11.0,12.0,55,0.00,,,0.00,VWS V14.01,2013-01-20 21:45:00,
2013-01-20 15:50:00,1.7,-10.4,30.28,West,263,5.0,12.0,56,0.00,,,0.00,VWS V14.01,2013-01-20 21:50:00,
2013-01-20 15:51:00,1.8,-10.6,30.28,West,281,4.0,13.0,55,0.00,,,0.00,VWS V14.01,2013-01-20 21:51:00,
2013-01-20 15:55:00,1.8,-11.0,30.28,WSW,258,4.0,18.0,54,0.00,,,0.00,VWS V14.01,2013-01-20 21:55:00,
2013-01-20 15:56:00,1.8,-11.0,30.28,West,270,5.0,10.0,54,0.00,,,0.00,VWS V14.01,2013-01-20 21:56:00,
2013-01-20 16:00:00,1.8,-11.0,30.28,West,275,6.0,10.0,54,0.00,,,0.00,VWS V14.01,2013-01-20 22:00:00,
2013-01-20 16:01:00,1.8,-11.0,30.28,West,271,6.0,6.0,54,0.00,,,0.00,VWS V14.01,2013-01-20 22:01:00,
2013-01-20 16:05:00,1.8,-11.0,30.28,West,274,4.0,13.0,54,0.00,,,0.00,VWS V14.01,2013-01-20 22:05:00,
2013-01-20 16:06:00,1.8,-11.0,30.28,West,271,5.0,14.0,54,0.00,,,0.00,VWS V14.01,2013-01-20 22:06:00,
2013-01-20 16:10:00,1.7,-11.5,30.28,WSW,250,6.0,18.0,53,0.00,,,0.00,VWS V14.01,2013-01-20 22:10:00,
2013-01-20 16:11:00,1.7,-11.1,30.28,West,274,5.0,16.0,54,0.00,,,0.00,VWS V14.01,2013-01-20 22:11:00,
2013-01-20 16:15:00,1.7,-11.1,30.28,WSW,250,6.0,16.0,54,0.00,,,0.00,VWS V14.01,2013-01-20 22:15:00,
2013-01-20 16:16:00,1.7,-10.4,30.28,WSW,240,3.0,12.0,56,0.00,,,0.00,VWS V14.01,2013-01-20 22:16:00,
2013-01-20 16:20:00,1.7,-10.4,30.28,WNW,287,5.0,12.0,56,0.00,,,0.00,VWS V14.01,2013-01-20 22:20:00,
2013-01-20 16:22:00,1.7,-10.7,30.28,WNW,288,11.0,11.0,55,0.00,,,0.00,VWS V14.01,2013-01-20 22:22:00,
2013-01-20 16:25:00,1.5,-10.9,30.28,WSW,243,5.0,11.0,55,0.00,,,0.00,VWS V14.01,2013-01-20 22:25:00,
2013-01-20 16:27:00,1.5,-10.9,30.28,West,263,6.0,10.0,55,0.00,,,0.00,VWS V14.01,2013-01-20 22:27:00,
2013-01-20 16:32:00,1.5,-10.9,30.28,West,281,6.0,8.0,55,0.00,,,0.00,VWS V14.01,2013-01-20 22:32:00,
2013-01-20 16:35:00,1.3,-11.1,30.28,WSW,253,6.0,8.0,55,0.00,,,0.00,VWS V14.01,2013-01-20 22:35:00,
2013-01-20 16:37:00,1.3,-10.7,30.28,West,264,3.0,8.0,56,0.00,,,0.00,VWS V14.01,2013-01-20 22:37:00,
2013-01-20 16:40:00,1.3,-10.7,30.28,West,261,3.0,10.0,56,0.00,,,0.00,VWS V14.01,2013-01-20 22:40:00,
2013-01-20 16:43:00,1.3,-10.7,30.28,West,263,5.0,13.0,56,0.00,,,0.00,VWS V14.01,2013-01-20 22:43:00,
2013-01-20 16:45:00,1.3,-10.7,30.28,West,277,6.0,13.0,56,0.00,,,0.00,VWS V14.01,2013-01-20 22:45:00,
2013-01-20 16:48:00,1.1,-10.6,30.28,WSW,250,6.0,11.0,57,0.00,,,0.00,VWS V14.01,2013-01-20 22:48:00,
2013-01-20 16:50:00,1.1,-10.6,30.28,West,272,4.0,11.0,57,0.00,,,0.00,VWS V14.01,2013-01-20 22:50:00,
2013-01-20 16:53:00,0.9,-10.4,30.28,WSW,244,5.0,6.0,58,0.00,,,0.00,VWS V14.01,2013-01-20 22:53:00,
2013-01-20 16:55:00,0.9,-10.4,30.28,WSW,256,4.0,6.0,58,0.00,,,0.00,VWS V14.01,2013-01-20 22:55:00,
2013-01-20 16:58:00,0.9,-10.1,30.27,West,277,5.0,11.0,59,0.00,,,0.00,VWS V14.01,2013-01-20 22:58:00,
2013-01-20 17:00:00,0.9,-10.1,30.27,West,263,5.0,11.0,59,0.00,,,0.00,VWS V14.01,2013-01-20 23:00:00,
2013-01-20 17:04:00,0.9,-10.1,30.27,WSW,240,6.0,14.0,59,0.00,,,0.00,VWS V14.01,2013-01-20 23:04:00,
2013-01-20 17:05:00,0.9,-10.1,30.27,SW,236,4.0,14.0,59,0.00,,,0.00,VWS V14.01,2013-01-20 23:05:00,
2013-01-20 17:09:00,0.7,-10.6,30.27,West,260,3.0,6.0,58,0.00,,,0.00,VWS V14.01,2013-01-20 23:09:00,
2013-01-20 17:10:00,0.7,-10.6,30.27,West,260,3.0,6.0,58,0.00,,,0.00,VWS V14.01,2013-01-20 23:10:00,
2013-01-20 17:14:00,0.7,-10.6,30.28,West,274,10.0,17.0,58,0.00,,,0.00,VWS V14.01,2013-01-20 23:14:00,
2013-01-20 17:15:00,0.7,-10.6,30.28,West,274,10.0,17.0,58,0.00,,,0.00,VWS V14.01,2013-01-20 23:15:00,
2013-01-20 17:19:00,0.7,-10.2,30.28,West,264,4.0,5.0,59,0.00,,,0.00,VWS V14.01,2013-01-20 23:19:00,
2013-01-20 17:20:00,0.7,-10.6,30.28,WNW,285,5.0,10.0,58,0.00,,,0.00,VWS V14.01,2013-01-20 23:20:00,
2013-01-20 17:24:00,0.7,-10.2,30.28,West,265,4.0,5.0,59,0.00,,,0.00,VWS V14.01,2013-01-20 23:24:00,
2013-01-20 17:25:00,0.7,-10.2,30.28,West,260,3.0,6.0,59,0.00,,,0.00,VWS V14.01,2013-01-20 23:25:00,
2013-01-20 17:30:00,0.7,-9.9,30.27,WSW,250,3.0,5.0,60,0.00,,,0.00,VWS V14.01,2013-01-20 23:30:00,
2013-01-20 17:35:00,0.5,-10.1,30.27,West,272,3.0,7.0,60,0.00,,,0.00,VWS V14.01,2013-01-20 23:35:00,
2013-01-20 17:40:00,0.5,-10.1,30.27,WSW,256,3.0,5.0,60,0.00,,,0.00,VWS V14.01,2013-01-20 23:40:00,
2013-01-20 17:45:00,0.3,-10.3,30.28,West,260,3.0,6.0,60,0.00,,,0.00,VWS V14.01,2013-01-20 23:45:00,
2013-01-20 17:46:00,0.3,-10.0,30.28,WSW,248,4.0,8.0,61,0.00,,,0.00,VWS V14.01,2013-01-20 23:46:00,
2013-01-20 17:50:00,0.3,-10.3,30.28,WSW,240,3.0,8.0,60,0.00,,,0.00,VWS V14.01,2013-01-20 23:50:00,
2013-01-20 17:51:00,0.3,-10.0,30.28,WSW,251,3.0,7.0,61,0.00,,,0.00,VWS V14.01,2013-01-20 23:51:00,
2013-01-20 17:55:00,0.3,-10.0,30.28,WSW,254,5.0,9.0,61,0.00,,,0.00,VWS V14.01,2013-01-20 23:55:00,
2013-01-20 17:57:00,0.3,-9.6,30.28,WSW,250,4.0,6.0,62,0.00,,,0.00,VWS V14.01,2013-01-20 23:57:00,
2013-01-20 18:00:00,0.3,-9.6,30.27,WSW,251,3.0,11.0,62,0.00,,,0.00,VWS V14.01,2013-01-21 00:00:00,
2013-01-20 18:02:00,0.3,-9.6,30.27,SW,229,5.0,6.0,62,0.00,,,0.00,VWS V14.01,2013-01-21 00:02:00,
2013-01-20 18:05:00,0.3,-9.6,30.27,WSW,240,7.0,8.0,62,0.00,,,0.00,VWS V14.01,2013-01-21 00:05:00,
2013-01-20 18:07:00,0.3,-9.3,30.27,SW,232,5.0,11.0,63,0.00,,,0.00,VWS V14.01,2013-01-21 00:07:00,
2013-01-20 18:10:00,0.1,-9.5,30.27,WSW,243,5.0,11.0,63,0.00,,,0.00,VWS V14.01,2013-01-21 00:10:00,
2013-01-20 18:12:00,0.1,-9.5,30.27,SW,227,3.0,8.0,63,0.00,,,0.00,VWS V14.01,2013-01-21 00:12:00,
2013-01-20 18:15:00,0.1,-9.5,30.27,SW,229,2.0,8.0,63,0.00,,,0.00,VWS V14.01,2013-01-21 00:15:00,
2013-01-20 18:18:00,0.1,-9.5,30.27,WSW,239,3.0,6.0,63,0.00,,,0.00,VWS V14.01,2013-01-21 00:18:00,
2013-01-20 18:20:00,0.1,-9.5,30.27,WSW,253,3.0,6.0,63,0.00,,,0.00,VWS V14.01,2013-01-21 00:20:00,
2013-01-20 18:23:00,0.1,-9.5,30.27,WSW,247,5.0,6.0,63,0.00,,,0.00,VWS V14.01,2013-01-21 00:23:00,
2013-01-20 18:25:00,0.1,-9.2,30.27,WSW,246,3.0,6.0,64,0.00,,,0.00,VWS V14.01,2013-01-21 00:25:00,
2013-01-20 18:28:00,0.1,-9.2,30.27,WSW,254,3.0,6.0,64,0.00,,,0.00,VWS V14.01,2013-01-21 00:28:00,
2013-01-20 18:30:00,0.1,-9.2,30.27,WSW,258,4.0,6.0,64,0.00,,,0.00,VWS V14.01,2013-01-21 00:30:00,
2013-01-20 18:33:00,0.1,-9.2,30.27,WSW,239,4.0,6.0,64,0.00,,,0.00,VWS V14.01,2013-01-21 00:33:00,
2013-01-20 18:35:00,0.1,-9.2,30.27,WSW,237,2.0,6.0,64,0.00,,,0.00,VWS V14.01,2013-01-21 00:35:00,
2013-01-20 18:38:00,0.1,-9.3,30.27,WSW,257,5.0,7.0,64,0.00,,,0.00,VWS V14.01,2013-01-21 00:38:00,
2013-01-20 18:40:00,0.1,-9.3,30.27,WSW,254,6.0,7.0,64,0.00,,,0.00,VWS V14.01,2013-01-21 00:40:00,
2013-01-20 18:44:00,0.1,-9.3,30.27,SW,236,3.0,7.0,64,0.00,,,0.00,VWS V14.01,2013-01-21 00:44:00,
2013-01-20 18:45:00,0.1,-9.3,30.27,WSW,241,7.0,8.0,64,0.00,,,0.00,VWS V14.01,2013-01-21 00:45:00,
2013-01-20 18:49:00,0.1,-9.3,30.27,SW,233,4.0,7.0,64,0.00,,,0.00,VWS V14.01,2013-01-21 00:49:00,
2013-01-20 18:50:00,0.1,-9.3,30.27,WSW,239,3.0,7.0,64,0.00,,,0.00,VWS V14.01,2013-01-21 00:50:00,
2013-01-20 18:54:00,-0.2,-9.1,30.27,WSW,243,5.0,8.0,65,0.00,,,0.00,VWS V14.01,2013-01-21 00:54:00,
2013-01-20 18:55:00,-0.2,-9.1,30.27,WSW,237,3.0,8.0,65,0.00,,,0.00,VWS V14.01,2013-01-21 00:55:00,
2013-01-20 18:59:00,-0.2,-9.1,30.27,WSW,243,4.0,6.0,65,0.00,,,0.00,VWS V14.01,2013-01-21 00:59:00,
2013-01-20 19:00:00,-0.2,-9.1,30.27,WSW,243,4.0,6.0,65,0.00,,,0.00,VWS V14.01,2013-01-21 01:00:00,
2013-01-20 19:04:00,-0.6,-9.2,30.27,SW,227,6.0,7.0,66,0.00,,,0.00,VWS V14.01,2013-01-21 01:04:00,
2013-01-20 19:05:00,-0.6,-9.2,30.27,SW,227,6.0,7.0,66,0.00,,,0.00,VWS V14.01,2013-01-21 01:05:00,
2013-01-20 19:09:00,-1.0,-9.6,30.27,SSW,209,4.0,6.0,66,0.00,,,0.00,VWS V14.01,2013-01-21 01:09:00,
2013-01-20 19:10:00,-1.0,-9.6,30.27,SSW,209,4.0,6.0,66,0.00,,,0.00,VWS V14.01,2013-01-21 01:10:00,
2013-01-20 19:14:00,-1.2,-9.8,30.27,SSW,210,3.0,7.0,66,0.00,,,0.00,VWS V14.01,2013-01-21 01:14:00,
2013-01-20 19:15:00,-1.2,-9.8,30.27,SSW,210,3.0,7.0,66,0.00,,,0.00,VWS V14.01,2013-01-21 01:15:00,
2013-01-20 19:19:00,-1.4,-9.7,30.27,SSW,209,4.0,5.0,67,0.00,,,0.00,VWS V14.01,2013-01-21 01:19:00,
2013-01-20 19:20:00,-1.4,-9.7,30.27,SSW,209,4.0,5.0,67,0.00,,,0.00,VWS V14.01,2013-01-21 01:20:00,
2013-01-20 19:24:00,-1.4,-9.7,30.27,SSW,208,3.0,9.0,67,0.00,,,0.00,VWS V14.01,2013-01-21 01:24:00,
2013-01-20 19:25:00,-1.4,-9.7,30.27,SSW,208,3.0,9.0,67,0.00,,,0.00,VWS V14.01,2013-01-21 01:25:00,
2013-01-20 19:29:00,-1.4,-9.7,30.26,SSW,208,3.0,6.0,67,0.00,,,0.00,VWS V14.01,2013-01-21 01:29:00,
2013-01-20 19:30:00,-1.4,-9.7,30.26,SSW,208,3.0,6.0,67,0.00,,,0.00,VWS V14.01,2013-01-21 01:30:00,
2013-01-20 19:34:00,-1.4,-9.7,30.26,WSW,243,3.0,6.0,67,0.00,,,0.00,VWS V14.01,2013-01-21 01:34:00,
2013-01-20 19:35:00,-1.4,-9.7,30.26,WSW,243,3.0,6.0,67,0.00,,,0.00,VWS V14.01,2013-01-21 01:35:00,
2013-01-20 19:39:00,-1.2,-9.5,30.26,WSW,248,4.0,5.0,67,0.00,,,0.00,VWS V14.01,2013-01-21 01:39:00,
2013-01-20 19:40:00,-1.2,-9.5,30.26,WSW,248,4.0,5.0,67,0.00,,,0.00,VWS V14.01,2013-01-21 01:40:00,
2013-01-20 19:44:00,-1.4,-9.7,30.26,South,191,3.0,3.0,67,0.00,,,0.00,VWS V14.01,2013-01-21 01:44:00,
2013-01-20 19:45:00,-1.4,-9.7,30.26,South,185,2.0,6.0,67,0.00,,,0.00,VWS V14.01,2013-01-21 01:45:00,
2013-01-20 19:49:00,-1.4,-9.4,30.26,WSW,243,4.0,5.0,68,0.00,,,0.00,VWS V14.01,2013-01-21 01:49:00,
2013-01-20 19:50:00,-1.4,-9.4,30.26,SW,236,5.0,7.0,68,0.00,,,0.00,VWS V14.01,2013-01-21 01:50:00,
2013-01-20 19:54:00,-1.4,-9.4,30.26,SW,230,3.0,4.0,68,0.00,,,0.00,VWS V14.01,2013-01-21 01:54:00,
2013-01-20 19:55:00,-1.4,-9.4,30.26,SW,230,3.0,6.0,68,0.00,,,0.00,VWS V14.01,2013-01-21 01:55:00,
2013-01-20 19:59:00,-1.2,-9.2,30.26,SW,233,3.0,4.0,68,0.00,,,0.00,VWS V14.01,2013-01-21 01:59:00,
2013-01-20 20:00:00,-1.4,-9.4,30.26,SW,234,3.0,7.0,68,0.00,,,0.00,VWS V14.01,2013-01-21 02:00:00,
2013-01-20 20:05:00,-1.4,-9.4,30.26,WSW,247,5.0,5.0,68,0.00,,,0.00,VWS V14.01,2013-01-21 02:05:00,
2013-01-20 20:10:00,-1.4,-9.4,30.26,WSW,256,3.0,5.0,68,0.00,,,0.00,VWS V14.01,2013-01-21 02:10:00,
2013-01-20 20:15:00,-1.4,-9.4,30.25,SW,229,3.0,4.0,68,0.00,,,0.00,VWS V14.01,2013-01-21 02:15:00,
2013-01-20 20:20:00,-1.4,-9.4,30.25,WSW,248,3.0,8.0,68,0.00,,,0.00,VWS V14.01,2013-01-21 02:20:00,
2013-01-20 20:25:00,-1.4,-9.4,30.25,West,263,3.0,7.0,68,0.00,,,0.00,VWS V14.01,2013-01-21 02:25:00,
2013-01-20 20:30:00,-1.4,-9.7,30.25,WSW,239,3.0,8.0,67,0.00,,,0.00,VWS V14.01,2013-01-21 02:30:00,
2013-01-20 20:31:00,-1.4,-9.7,30.25,West,278,3.0,6.0,67,0.00,,,0.00,VWS V14.01,2013-01-21 02:31:00,
2013-01-20 20:35:00,-1.4,-9.7,30.25,West,265,1.0,11.0,67,0.00,,,0.00,VWS V14.01,2013-01-21 02:35:00,
2013-01-20 20:36:00,-1.4,-10.0,30.25,West,272,4.0,7.0,66,0.00,,,0.00,VWS V14.01,2013-01-21 02:36:00,
2013-01-20 20:40:00,-1.2,-10.1,30.25,West,278,3.0,7.0,65,0.00,,,0.00,VWS V14.01,2013-01-21 02:40:00,
2013-01-20 20:41:00,-1.4,-10.3,30.25,WSW,241,5.0,11.0,65,0.00,,,0.00,VWS V14.01,2013-01-21 02:41:00,
2013-01-20 20:45:00,-1.4,-10.6,30.25,NW,318,4.0,11.0,64,0.00,,,0.00,VWS V14.01,2013-01-21 02:45:00,
2013-01-20 20:46:00,-1.4,-10.6,30.25,West,281,4.0,9.0,64,0.00,,,0.00,VWS V14.01,2013-01-21 02:46:00,
2013-01-20 20:50:00,-1.4,-10.6,30.25,WNW,294,5.0,9.0,64,0.00,,,0.00,VWS V14.01,2013-01-21 02:50:00,
2013-01-20 20:52:00,-1.6,-11.1,30.25,WSW,248,4.0,6.0,63,0.00,,,0.00,VWS V14.01,2013-01-21 02:52:00,
2013-01-20 20:55:00,-1.6,-11.1,30.25,WNW,292,5.0,7.0,63,0.00,,,0.00,VWS V14.01,2013-01-21 02:55:00,
2013-01-20 20:57:00,-1.6,-11.1,30.25,WNW,285,4.0,11.0,63,0.00,,,0.00,VWS V14.01,2013-01-21 02:57:00,
2013-01-20 21:00:00,-1.6,-11.4,30.25,West,278,7.0,11.0,62,0.00,,,0.00,VWS V14.01,2013-01-21 03:00:00,
2013-01-20 21:02:00,-1.8,-11.3,30.25,WSW,258,3.0,9.0,63,0.00,,,0.00,VWS V14.01,2013-01-21 03:02:00,
2013-01-20 21:05:00,-1.8,-11.6,30.25,West,268,8.0,10.0,62,0.00,,,0.00,VWS V14.01,2013-01-21 03:05:00,
2013-01-20 21:07:00,-1.8,-11.6,30.25,WNW,301,4.0,14.0,62,0.00,,,0.00,VWS V14.01,2013-01-21 03:07:00,
2013-01-20 21:10:00,-1.8,-11.6,30.25,WNW,287,6.0,14.0,62,0.00,,,0.00,VWS V14.01,2013-01-21 03:10:00,
2013-01-20 21:12:00,-2.0,-11.5,30.25,WNW,298,7.0,8.0,63,0.00,,,0.00,VWS V14.01,2013-01-21 03:12:00,
2013-01-20 21:15:00,-2.0,-11.5,30.25,West,268,3.0,8.0,63,0.00,,,0.00,VWS V14.01,2013-01-21 03:15:00,
2013-01-20 21:18:00,-2.0,-11.5,30.25,WSW,246,5.0,8.0,63,0.00,,,0.00,VWS V14.01,2013-01-21 03:18:00,
2013-01-20 21:20:00,-2.0,-11.5,30.25,West,268,5.0,8.0,63,0.00,,,0.00,VWS V14.01,2013-01-21 03:20:00,
2013-01-20 21:23:00,-2.0,-11.5,30.25,NNW,328,6.0,8.0,63,0.00,,,0.00,VWS V14.01,2013-01-21 03:23:00,
2013-01-20 21:25:00,-2.0,-11.5,30.25,WSW,254,5.0,8.0,63,0.00,,,0.00,VWS V14.01,2013-01-21 03:25:00,
2013-01-20 21:28:00,-2.0,-11.8,30.25,WSW,256,3.0,11.0,62,0.00,,,0.00,VWS V14.01,2013-01-21 03:28:00,
2013-01-20 21:30:00,-2.2,-11.7,30.25,West,281,1.0,11.0,63,0.00,,,0.00,VWS V14.01,2013-01-21 03:30:00,
2013-01-20 21:33:00,-2.2,-11.7,30.25,West,272,5.0,12.0,63,0.00,,,0.00,VWS V14.01,2013-01-21 03:33:00,
2013-01-20 21:35:00,-2.2,-11.7,30.25,WNW,292,3.0,12.0,63,0.00,,,0.00,VWS V14.01,2013-01-21 03:35:00,
2013-01-20 21:38:00,-2.4,-11.9,30.25,NW,313,11.0,13.0,63,0.00,,,0.00,VWS V14.01,2013-01-21 03:38:00,
2013-01-20 21:40:00,-2.4,-11.9,30.25,NW,305,11.0,13.0,63,0.00,,,0.00,VWS V14.01,2013-01-21 03:40:00,
2013-01-20 21:44:00,-2.4,-11.9,30.25,NW,312,6.0,13.0,63,0.00,,,0.00,VWS V14.01,2013-01-21 03:44:00,
2013-01-20 21:45:00,-2.4,-11.9,30.25,West,264,2.0,13.0,63,0.00,,,0.00,VWS V14.01,2013-01-21 03:45:00,
2013-01-20 21:49:00,-2.6,-12.1,30.25,West,274,4.0,7.0,63,0.00,,,0.00,VWS V14.01,2013-01-21 03:49:00,
2013-01-20 21:50:00,-2.6,-12.1,30.25,West,274,4.0,7.0,63,0.00,,,0.00,VWS V14.01,2013-01-21 03:50:00,
2013-01-20 21:54:00,-2.8,-12.3,30.25,West,272,2.0,8.0,63,0.00,,,0.00,VWS V14.01,2013-01-21 03:54:00,
2013-01-20 21:55:00,-2.8,-12.3,30.25,NW,305,3.0,8.0,63,0.00,,,0.00,VWS V14.01,2013-01-21 03:55:00,
2013-01-20 21:59:00,-2.8,-12.3,30.25,WNW,291,2.0,10.0,63,0.00,,,0.00,VWS V14.01,2013-01-21 03:59:00,
2013-01-20 22:00:00,-2.8,-12.3,30.25,WNW,291,2.0,10.0,63,0.00,,,0.00,VWS V14.01,2013-01-21 04:00:00,
2013-01-20 22:04:00,-3.1,-12.5,30.25,WNW,298,6.0,9.0,63,0.00,,,0.00,VWS V14.01,2013-01-21 04:04:00,
2013-01-20 22:05:00,-3.1,-12.5,30.25,WNW,285,9.0,12.0,63,0.00,,,0.00,VWS V14.01,2013-01-21 04:05:00,
2013-01-20 22:09:00,-3.3,-12.7,30.25,SSW,212,3.0,5.0,63,0.00,,,0.00,VWS V14.01,2013-01-21 04:09:00,
2013-01-20 22:10:00,-3.1,-12.5,30.25,West,271,3.0,9.0,63,0.00,,,0.00,VWS V14.01,2013-01-21 04:10:00,
2013-01-20 22:15:00,-3.3,-12.7,30.25,WSW,256,3.0,3.0,63,0.00,,,0.00,VWS V14.01,2013-01-21 04:15:00,
2013-01-20 22:20:00,-3.5,-12.9,30.25,West,264,3.0,8.0,63,0.00,,,0.00,VWS V14.01,2013-01-21 04:20:00,
2013-01-20 22:25:00,-3.5,-12.9,30.25,NW,322,7.0,7.0,63,0.00,,,0.00,VWS V14.01,2013-01-21 04:25:00,
2013-01-20 22:30:00,-3.7,-13.1,30.26,SW,227,2.0,8.0,63,0.00,,,0.00,VWS V14.01,2013-01-21 04:30:00,
2013-01-20 22:35:00,-3.7,-13.1,30.26,West,260,2.0,3.0,63,0.00,,,0.00,VWS V14.01,2013-01-21 04:35:00,
2013-01-20 22:41:00,-3.9,-13.3,30.26,West,263,4.0,5.0,63,0.00,,,0.00,VWS V14.01,2013-01-21 04:41:00,
2013-01-20 22:45:00,-3.9,-13.3,30.25,WSW,247,6.0,6.0,63,0.00,,,0.00,VWS V14.01,2013-01-21 04:45:00,
2013-01-20 22:46:00,-4.1,-13.5,30.25,WSW,244,2.0,9.0,63,0.00,,,0.00,VWS V14.01,2013-01-21 04:46:00,
2013-01-20 22:50:00,-4.1,-13.2,30.25,SW,226,4.0,9.0,64,0.00,,,0.00,VWS V14.01,2013-01-21 04:50:00,
2013-01-20 22:52:00,-4.3,-13.7,30.25,West,268,3.0,5.0,63,0.00,,,0.00,VWS V14.01,2013-01-21 04:52:00,
2013-01-20 22:55:00,-4.3,-13.7,30.25,West,270,8.0,8.0,63,0.00,,,0.00,VWS V14.01,2013-01-21 04:55:00,
2013-01-20 22:58:00,-4.3,-13.7,30.25,WSW,246,5.0,8.0,63,0.00,,,0.00,VWS V14.01,2013-01-21 04:58:00,
2013-01-20 23:00:00,-4.6,-14.0,30.25,West,274,4.0,4.0,63,0.00,,,0.00,VWS V14.01,2013-01-21 05:00:00,
2013-01-20 23:03:00,-4.6,-14.3,30.25,NNW,339,10.0,16.0,62,0.00,,,0.00,VWS V14.01,2013-01-21 05:03:00,
2013-01-20 23:04:00,-4.6,-14.6,30.25,West,270,2.0,5.0,61,0.00,,,0.00,VWS V14.01,2013-01-21 05:04:00,
2013-01-20 23:05:00,-4.6,-14.6,30.25,WNW,298,1.0,16.0,61,0.00,,,0.00,VWS V14.01,2013-01-21 05:05:00,
2013-01-20 23:08:00,-4.6,-14.6,30.25,West,260,3.0,10.0,61,0.00,,,0.00,VWS V14.01,2013-01-21 05:08:00,
2013-01-20 23:10:00,-4.6,-14.6,30.25,West,271,3.0,10.0,61,0.00,,,0.00,VWS V14.01,2013-01-21 05:10:00,
2013-01-20 23:13:00,-4.8,-15.1,30.25,West,260,2.0,5.0,60,0.00,,,0.00,VWS V14.01,2013-01-21 05:13:00,
2013-01-20 23:15:00,-4.8,-15.1,30.25,WSW,250,3.0,5.0,60,0.00,,,0.00,VWS V14.01,2013-01-21 05:15:00,
2013-01-20 23:18:00,-4.8,-15.1,30.25,West,275,3.0,5.0,60,0.00,,,0.00,VWS V14.01,2013-01-21 05:18:00,
2013-01-20 23:20:00,-4.8,-15.1,30.25,West,265,3.0,5.0,60,0.00,,,0.00,VWS V14.01,2013-01-21 05:20:00,
2013-01-20 23:24:00,-5.0,-14.7,30.25,West,267,3.0,6.0,62,0.00,,,0.00,VWS V14.01,2013-01-21 05:24:00,
2013-01-20 23:25:00,-5.0,-14.7,30.25,West,277,3.0,6.0,62,0.00,,,0.00,VWS V14.01,2013-01-21 05:25:00,
2013-01-20 23:29:00,-5.2,-14.9,30.26,WSW,248,5.0,7.0,62,0.00,,,0.00,VWS V14.01,2013-01-21 05:29:00,
2013-01-20 23:30:00,-5.2,-14.9,30.26,WSW,248,5.0,7.0,62,0.00,,,0.00,VWS V14.01,2013-01-21 05:30:00,
2013-01-20 23:34:00,-5.4,-14.7,30.26,West,270,2.0,6.0,63,0.00,,,0.00,VWS V14.01,2013-01-21 05:34:00,
2013-01-20 23:35:00,-5.4,-14.7,30.26,West,270,2.0,6.0,63,0.00,,,0.00,VWS V14.01,2013-01-21 05:35:00,
2013-01-20 23:39:00,-5.6,-14.9,30.26,West,281,5.0,6.0,63,0.00,,,0.00,VWS V14.01,2013-01-21 05:39:00,
2013-01-20 23:40:00,-5.6,-14.9,30.26,WSW,257,5.0,5.0,63,0.00,,,0.00,VWS V14.01,2013-01-21 05:40:00,
2013-01-20 23:44:00,-5.6,-15.6,30.26,WNW,284,2.0,3.0,61,0.00,,,0.00,VWS V14.01,2013-01-21 05:44:00,
2013-01-20 23:45:00,-5.6,-15.6,30.26,WNW,285,3.0,8.0,61,0.00,,,0.00,VWS V14.01,2013-01-21 05:45:00,
2013-01-20 23:49:00,-5.9,-16.2,30.26,SW,229,3.0,5.0,60,0.00,,,0.00,VWS V14.01,2013-01-21 05:49:00,
2013-01-20 23:50:00,-5.9,-16.2,30.26,NNW,330,4.0,11.0,60,0.00,,,0.00,VWS V14.01,2013-01-21 05:50:00,
2013-01-20 23:54:00,-6.1,-16.7,30.26,WNW,302,3.0,5.0,59,0.00,,,0.00,VWS V14.01,2013-01-21 05:54:00,
2013-01-20 23:55:00,-6.1,-16.4,30.26,West,272,4.0,12.0,60,0.00,,,0.00,VWS V14.01,2013-01-21 05:55:00,